Location: Forcarei
(42.5879°N, 8.3520°W)
Time: 00:52:55
(UTC+02:00)

ISS - Visible Passes

Search period start: 06 May 2021 00:00
Search period end: 16 May 2021 00:00
Orbit: 418 x 421 km, 51.6° (Epoch: 05 May)

Date Brightness Start Highest point End Pass type
(mag) Time Alt. Az. Time Alt. Az. Time Alt. Az.
06 May -1.8 04:21:16 29° NNE 04:21:16 29° NNE 04:23:29 10° NE visible
06 May -1.2 05:55:27 10° NW 05:57:51 18° N 06:00:15 10° NE visible
07 May -0.8 03:35:20 16° NE 03:35:20 16° NE 03:36:08 10° NE visible
07 May -1.3 05:08:16 13° NW 05:10:12 19° N 05:12:44 10° NE visible
07 May -1.2 06:45:18 10° NW 06:47:54 20° NNE 06:50:29 10° ENE visible
08 May -1.5 04:22:20 22° NNW 04:22:35 22° NNW 04:25:17 10° NE visible
08 May -1.0 05:57:50 10° NW 06:00:15 18° N 06:02:41 10° NE visible
09 May -1.1 03:36:21 20° NNE 03:36:21 20° NNE 03:37:55 10° NE visible
09 May -1.0 05:10:14 10° NW 05:12:35 17° N 05:14:57 10° NE visible
09 May -1.7 06:47:09 10° NW 06:50:11 29° NNE 06:53:12 10° E visible
10 May -0.5 02:50:21 11° NE 02:50:21 11° NE 02:50:33 10° NE visible
10 May -1.0 04:23:17 13° NW 04:24:55 18° N 04:27:18 10° NE visible
10 May -1.3 05:59:47 10° NW 06:02:35 23° NNE 06:05:23 10° ENE visible
11 May -1.1 03:37:14 19° N 03:37:15 19° N 03:39:47 10° NE visible
11 May -1.0 05:12:22 10° NW 05:14:57 20° N 05:17:33 10° ENE visible
12 May -0.8 02:51:09 16° NNE 02:51:09 16° NNE 02:52:20 10° NE visible
12 May -0.9 04:24:52 10° NW 04:27:18 18° N 04:29:43 10° NE visible
12 May -2.3 06:01:33 10° NW 06:04:46 40° NNE 06:07:59 10° E visible
13 May -0.8 03:37:53 13° NW 03:39:37 17° N 03:41:58 10° NE visible
13 May -1.7 05:14:11 10° NW 05:17:12 29° NNE 05:20:14 10° E visible
14 May -0.9 02:51:27 17° NNW 02:51:57 18° N 02:54:19 10° NE visible
14 May -1.3 04:26:48 10° NW 04:29:36 23° NNE 04:32:24 10° ENE visible
14 May -3.8 06:03:21 10° WNW 06:06:45 85° SW 06:10:07 10° SE visible
14 May -2.5 22:47:39 10° S 22:50:17 22° SE 22:52:56 10° E visible
15 May -2.9 00:23:36 10° WSW 00:26:53 51° NNW 00:30:11 10° NE visible
15 May -1.0 02:01:46 10° WNW 02:04:16 19° N 02:06:47 10° NE visible
15 May -1.0 03:39:22 10° NW 03:41:58 20° NNE 03:44:33 10° ENE visible
15 May -3.2 05:15:55 10° NW 05:19:17 60° NNE 05:22:37 10° ESE visible
15 May -3.7 23:36:02 10° WSW 23:39:23 80° NW 23:42:47 10° NE visible
